Regional Weather Roundup
Issued by NWS

Home | Current Version | Previous Version | Text Only | Print | Product List | Glossary Off
Versions: 1 2 3 4 5 6 7 8 9 10 11 12 13 14 15 16 17 18 19 20 21 22 23 24 25 26 27 28 29 30 31 32 33 34 35 36 37 38 39 40 41 42 43 44 45 46 47 48 49 50

000
ASUS43 KMKX 270659
RWRWI

WISCONSIN REGIONAL WEATHER ROUNDUP
NATIONAL WEATHER SERVICE MILWAUKEE/SULLIVAN WI
100 AM CST TUE JAN 27 2015

NOTE: "FAIR" INDICATES FEW OR NO CLOUDS BELOW 12,000 FEET WITH NO
SIGNIFICANT WEATHER AND/OR OBSTRUCTIONS TO VISIBILITY.

WIZ001-002-006>008-014>016-023>028-270800-
NORTHWEST WISCONSIN

CITY           SKY/WX    TMP DP  RH WIND       PRES   REMARKS
SUPERIOR ARPT  CLOUDY    29  24  82 N8        30.01R WCI  21
ASHLAND        CLOUDY    25  23  92 W3        30.00R
HAYWARD        CLOUDY    27  23  85 N5        29.98R WCI  22
SIREN          CLOUDY    31  24  77 N9        30.00R WCI  23
CUMBERLAND     CLOUDY    28  23  80 N13G18    29.97R WCI  18
RICE LAKE      CLOUDY    30  26  83 N5        29.99R WCI  25
CHETEK         CLOUDY    29  26  86 N5        29.98R WCI  24
LADYSMITH      CLOUDY    25  24  93 N3        29.97R
EAU CLAIRE     NOT AVBL
MENOMONIE      CLOUDY    32  29  90 NW6       29.98R FOG     WCI  26
NEW RICHMOND   CLOUDY    33  25  73 N12       29.99R WCI  24
OSCEOLA        CLOUDY    34  26  74 N7        30.02R WCI  28
$$

WIZ003>005-009-010-017-018-270800-
NORTH CENTRAL WISCONSIN

CITY           SKY/WX    TMP DP  RH WIND       PRES   REMARKS
MANITOWISH WTR CLOUDY    19  17  94 CALM      29.93R
ARBOR VITAE    CLOUDY    22  19  89 CALM      29.93R
WOODRUFF       CLOUDY    22  19  89 CALM      29.93R
RHINELANDER    CLOUDY    19  17  92 N3        29.93R
EAGLE RIVER    CLOUDY    19  16  86 CALM      29.93R
LAND O LAKES   CLOUDY    20  18  91 CALM      29.94R
PHILLIPS       CLOUDY    20  18  93 CALM      29.93R
TOMAHAWK       CLOUDY    19  18  94 CALM      29.94R
MEDFORD        CLOUDY    20  19  93 CALM      29.93R
MERRILL        CLOUDY    20  20  98 CALM      29.94R
$$

WIZ029-030-035-036-043>047-270800-
CENTRAL WISCONSIN

CITY           SKY/WX    TMP DP  RH WIND       PRES   REMARKS
WAUSAU         CLOUDY    22  19  89 CALM      29.93R
MOSINEE        CLOUDY    21  21 100 CALM      29.94R
MARSHFIELD     CLOUDY    23  20  88 N3        29.94R FOG
STEVENS POINT  CLOUDY    20  19  95 CALM      29.95R
WAUPACA        MOCLDY    25  22  89 CALM      29.96R FOG
WAUTOMA        NOT AVBL
WISC RAPIDS    CLOUDY    23  19  85 NE3       29.96R
CAMP DOUGLAS   CLOUDY    25  25 100 N3        29.95R
$$

WIZ011>013-019>022-031-037>040-048>050-270800-
NORTHEAST WISCONSIN

CITY           SKY/WX    TMP DP  RH WIND       PRES   REMARKS
ANTIGO         CLOUDY    20  19  96 E5        29.93R WCI  14
SHAWANO        CLOUDY    25  22  89 NE5       29.97R WCI  19
OCONTO         CLOUDY    23  22  97 CALM      29.99S
STURGEON BAY   CLOUDY    21  18  86 SE5       30.02R WCI  15
GREEN BAY      CLOUDY    24  20  84 E8        29.98R WCI  15
MANITOWOC      NOT AVBL
APPLETON       CLOUDY    25  23  93 NE3       29.95R
CLINTONVILLE   CLOUDY    25  23  93 E5        29.96R WCI  19
OSHKOSH        CLOUDY    24  20  84 E3        29.95R
$$

WIZ032>034-041-042-053>061-270800-
SOUTHWEST WISCONSIN

CITY           SKY/WX    TMP DP  RH WIND       PRES   REMARKS
LA CROSSE      CLOUDY    30  27  88 N6        29.99R FOG     WCI  24
SPARTA         CLOUDY    27  26  99 N3        29.97R FOG
VIROQUA        CLOUDY    29  29 100 N8        29.92R WCI  21
BOSCOBEL       CLOUDY    27  25  92 CALM      29.96R FOG
PRAIRIE DU CHI MIX PCPN  30  27  88 CALM      29.96R
PLATTEVILLE    CLOUDY    27  26  96 CALM      29.92R
$$

WIZ056-057-062-063-064-067-068-270800-
SOUTH CENTRAL WISCONSIN

CITY           SKY/WX    TMP DP  RH WIND       PRES   REMARKS
REEDSBURG      CLOUDY    24  23  98 CALM      29.93R FOG
BARABOO/DELLS  CLOUDY    23  22  94 CALM      29.92R FOG
LONE ROCK      NOT AVBL
MINERAL POINT  CLOUDY    28  27  93 CALM      29.91R FOG
MADISON        CLOUDY    25  22  88 CALM      29.93R FOG
MIDDLETON      CLOUDY    26  25  95 CALM      29.93R
WATERTOWN      CLOUDY    24  24  99 CALM      29.92R FOG
MONROE         FOG       27  27 100 CALM      29.90S VSB 1/2
JANESVILLE     CLOUDY    28  27  93 CALM      29.92R FOG
$$

WIZ051-052-058>065-066-070>072-270800-
SOUTHEAST WISCONSIN

CITY           SKY/WX    TMP DP  RH WIND       PRES   REMARKS
MILWAUKEE      LGT SNOW  26  22  84 NW3       29.94R
WAUKESHA       LGT SNOW  23  21  93 CALM      29.93R
MILWAUKEE/TIMM LGT SNOW  27  23  86 CALM      29.94R
RACINE         CLOUDY    26  23  88 CALM      29.95R
BURLINGTON     NOT AVBL
KENOSHA        CLOUDY    26  24  92 CALM      29.93R FOG
FOND DU LAC    CLOUDY    24  20  84 NE5       29.95R WCI  18
SHEBOYGAN      CLOUDY    26  19  74 E8        29.96R WCI  18
WEST BEND      MIX PCPN  25  21  86 CALM      29.93R
JUNEAU         CLOUDY    24  22  94 E3        29.93R FOG
$$

LSZ147-162-270800-
LAKE SUPERIOR

STATION/POSITION TIME  TEMP    WIND        PRES    WAVE
                       AIR SEA DIR/SP/G            HT/PER
                 (UTC) (F)     (DEG/KT/KT) (MB)    (FT/S)
DEVILS ISLAND    0600   29      20/  8/  9 1016.3R
PORT WING        0640   29     350/ 11/ 13 1016.6R
SAXON HARBOR     0600   25        CALM     1015.2R
$$

LMZ867-665-643>646-270800-
LAKE MICHIGAN

STATION/POSITION TIME  TEMP    WIND        PRES    WAVE
                       AIR SEA DIR/SP/G            HT/PER
                 (UTC) (F)     (DEG/KT/KT) (MB)    (FT/S)
NORTHPORT PIER   0622   25     130/  9/ 11 1016.6R
SISTER BAY       0513   23     150/  3/  8   N/A
KEWAUNEE LAKESHO 0600   24     150/  7/ 12 1014.5R
SHEBOYGAN LAKESH 0600   27     110/ 15/ 16 1015.2R
PORT WASHINGTON  0630   26        CALM     1014.9R
KENOSHA   LAKESH 0600   27      CALM  /  2 1013.5R
$$

TC  - TEMPERATURE IN CELSIUS
VSB - VISIBILITY IN STATUTE MILES
WCI - WIND CHILL INDEX
HX  - HEAT INDEX




USA.gov is the U.S. government's official web portal to all federal, state and local government web resources and services.